Hourly Data Report for October 12, 2015

All times are specified in Local Standard Time (LST). Add 1 hour to adjust for Daylight Saving Time where and when it is observed.

SAINT JOHN A
NEW BRUNSWICK

45°18'58.000" N
65°53'24.000" W
108.80 m
8104901
71609
YSJ

Download Data

Hourly Data (October 2015)
Hourly Data Report for October 12, 2015
Temp Definition
°C
Dew Point Temp Definition
°C
Rel Hum Definition
%
Wind Dir Definition
10's deg

Wind Spd Definition
km/h
Visibility Definition
km
Stn Press Definition
kPa
Hmdx Definition


Wind Chill Definition


Weather Definition


TIME
00:00 Legend Double Dagger 11.1 10.8 98 20 10 16.1 99.57     LegendNANA
01:00 Legend Double Dagger 10.7 10.4 98 19 9 16.1 99.58     LegendNANA
02:00 Legend Double Dagger 10.8 10.5 98 19 8 16.1 99.62     Cloudy
03:00 Legend Double Dagger 10.2 10.1 99 36 2 24.1 99.59     LegendNANA
04:00 Legend Double Dagger 9.6 9.6 100 36 2 9.7 99.56     Fog
05:00 Legend Double Dagger 10.2 10.2 100 36 2 9.7 99.58     Fog
06:00 Legend Double Dagger 10.8 10.8 100 16 7 0.6 99.64     Fog
07:00 Legend Double Dagger 10.9 10.9 100 16 8 0.6 99.66     Fog
08:00 Legend Double Dagger 11.6 11.6 100 19 10 1.6 99.69     Fog
09:00 Legend Double Dagger 12.4 12.4 100 20 16 8.1 99.73     Fog
10:00 Legend Double Dagger 13.5 12.1 91 19 22 16.1 99.73     LegendNANA
11:00 Legend Double Dagger 13.9 12.1 89 19 21 24.1 99.73     Mostly Cloudy
12:00 Legend Double Dagger 15.3 12.3 82 20 21 24.1 99.74     LegendNANA
13:00 Legend Double Dagger 16.1 11.3 73 19 26 24.1 99.70     LegendNANA
14:00 Legend Double Dagger 16.8 11.2 69 20 21 24.1 99.67     Mainly Clear
15:00 Legend Double Dagger 16.4 10.6 68 21 27 24.1 99.69     LegendNANA
16:00 Legend Double Dagger 15.8 10.6 71 19 23 24.1 99.68     LegendNANA
17:00 Legend Double Dagger 14.0 11.4 84 21 16 24.1 99.66     Mostly Cloudy
18:00 Legend Double Dagger 12.0 11.4 96 19 13 24.1 99.66     LegendNANA
19:00 Legend Double Dagger 12.4 12.1 98 19 17 16.1 99.70     LegendNANA
20:00 Legend Double Dagger 11.5 11.2 98 19 7 24.1 99.71     Mainly Clear
21:00 Legend Double Dagger 10.9 10.8 99 22 3 24.1 99.74     LegendNANA
22:00 Legend Double Dagger 9.7 9.7 100 21 5 3.2 99.79     Fog
23:00 Legend Double Dagger 11.7 11.6 99 14 10 9.7 99.76     Fog

Notes on Data Quality.

Legend

  • E = Estimated
  • M = Missing
  • NA = Not Available
  • ‡ = Partner data that is not subject to review by the National Climate Archives
Date modified: